Greybull, WY

5:22 PM MDT on September 26, 2016 (GMT -0600)
South Big Horn County

Weather History for KGEY - April, 2013

Change the Weather History Date:

Wednesday, April 3, 2013

  Actual Average Record
Temperature  
Mean Temperature 51 °F 43 °F  
Max Temperature 67 °F 57 °F 70 °F (2016)
Min Temperature 34 °F 29 °F 11 °F (2002)
Degree Days  
Heating Degree Days 14 22  
Month to date heating degree days 53 67  
Since 1 July heating degree days 6785 6909  
Cooling Degree Days 0 0  
Month to date cooling degree days 0 0  
Year to date cooling degree days 0 0  
Growing Degree Days 1 (Base 50)    
Moisture  
Dew Point 22 °F    
Average Humidity 36    
Maximum Humidity 56    
Minimum Humidity 16    
Precipitation  
Precipitation 0.00 in 0.01 in 0.06 in (2009)
Month to date precipitation 0.00 0.04  
Year to date precipitation 0.51 0.85  
Sea Level Pressure  
Sea Level Pressure 30.00 in    
Wind  
Wind Speed 7 mph (NNW)    
Max Wind Speed 22 mph    
Max Gust Speed 26 mph    
Visibility 10 miles    
Events      
T = Trace of Precipitation, MM = Missing Value Source: NWS Daily Summary

Daily Weather History Graph

Daily Weather History Graph

Search for Another Location

Airport or City:

Trip Planner

Search our weather history database for the weather conditions in past years. The results will help you decide how hot, cold, wet, or windy it might be!

Date:

Astronomy

Apr. 03, 2013 Rise Set
Actual Time 6:49 AM MDT 7:42 PM MDT
Civil Twilight 6:19 AM MDT 8:12 PM MDT
Nautical Twilight 5:44 AM MDT 8:47 PM MDT
Astronomical Twilight 5:07 AM MDT 9:24 PM MDT
Moon 2:47 AM MDT (4/3) 12:43 PM MDT (4/3)
Length of Visible Light 13h 52m
Length of Day
12h 53m
Last Quarter, 44% of the Moon is Illuminated
Apr 3
Last Quarter
Apr 10
New
Apr 18
First Quarter
Apr 25
Full
May 2
Last Quarter

Hourly Weather History & Observations

Time (MDT) Temp. Windchill Dew Point Humidity Pressure Visibility Wind Dir Wind Speed Gust Speed Precip Events Conditions
12:53 AM 45.0 °F 41.8 °F 21.0 °F 39% 29.94 in 10.0 mi SE 5.8 mph - N/A   Clear
1:53 AM 45.0 °F 41.2 °F 21.0 °F 39% 29.94 in 10.0 mi ESE 6.9 mph - N/A   Clear
2:53 AM 44.1 °F - 21.9 °F 42% 29.94 in 10.0 mi Calm Calm - N/A   Clear
3:53 AM 39.9 °F - 21.9 °F 49% 29.96 in 10.0 mi Calm Calm - N/A   Mostly Cloudy
4:53 AM 39.0 °F 36.8 °F 21.9 °F 50% 29.96 in 10.0 mi South 3.5 mph - N/A   Clear
5:53 AM 36.0 °F - 21.9 °F 57% 29.98 in 10.0 mi Calm Calm - N/A   Clear
6:53 AM 37.9 °F - 21.0 °F 51% 29.99 in 10.0 mi Calm Calm - N/A   Clear
7:53 AM 37.9 °F - 21.0 °F 51% 30.02 in 10.0 mi Calm Calm - N/A   Clear
8:53 AM 45.0 °F 42.6 °F 21.9 °F 40% 30.03 in 10.0 mi NW 4.6 mph - N/A   Mostly Cloudy
9:53 AM 51.1 °F - 21.0 °F 31% 30.02 in 10.0 mi SSE 3.5 mph - N/A   Overcast
10:53 AM 55.9 °F - 21.0 °F 26% 30.01 in 10.0 mi Variable 3.5 mph - N/A   Unknown
11:53 AM 60.1 °F - 19.9 °F 21% 30.00 in - North 8.1 mph - N/A   Unknown
12:53 PM 64.9 °F - 24.1 °F 21% 29.99 in 10.0 mi NNW 12.7 mph - N/A   Clear
1:53 PM 64.9 °F - 23.0 °F 20% 29.99 in 10.0 mi NNW 19.6 mph 23.0 mph N/A   Clear
2:53 PM 66.0 °F - 19.9 °F 17% 29.99 in 10.0 mi NW 20.7 mph 26.5 mph N/A   Clear
3:53 PM 64.9 °F - 18.0 °F 16% 29.99 in 10.0 mi NNW 17.3 mph - N/A   Clear
4:53 PM 64.9 °F - 19.9 °F 18% 29.99 in 10.0 mi NNW 13.8 mph - N/A   Clear
5:53 PM 64.9 °F - 21.0 °F 19% 29.99 in 10.0 mi North 8.1 mph - N/A   Clear
6:53 PM 63.0 °F - 21.0 °F 20% 30.01 in 10.0 mi NNW 9.2 mph - N/A   Overcast
7:53 PM 61.0 °F - 24.1 °F 24% 30.04 in - WNW 16.1 mph 24.2 mph N/A   Unknown
8:53 PM 55.0 °F - 26.1 °F 33% 30.04 in 10.0 mi NW 5.8 mph - N/A   Overcast
9:53 PM 51.1 °F - 26.1 °F 38% 30.05 in 10.0 mi Calm Calm - N/A   Clear
10:53 PM 48.9 °F - 26.1 °F 41% 30.04 in - North - - N/A   Unknown
11:53 PM 46.0 °F 44.8 °F 26.1 °F 46% 30.04 in 10.0 mi SE 3.5 mph - N/A   Clear